[[{"header":{"parameterUnit":"m.s-1","parameterCategory":1,"la1":30.2991,"la2":30.254,"lo1":-89.0895,"lo2":-89.0444,"dy":0.0017,"dx":0.0017,"nx":28,"ny":28,"refTime":"2025-08-13T09:00:00:Z","depth":0,"parameterNumber":2,"parameterNumberName":"U-component_of_WINDS"},"data":[0,0,0,0,0,0,0,0,0,0,0,0,0,0,0,0,0,0,0,0,0,0,0,0,0,0,0,0,0,0,0,0,0,0,0,0,0,0,0,0,0,0,0,0,0,0,0,0,0,0,0,0,0,0,0,0,0,0,4.0785,4.0787,0,4.0985,4.0988,4.099,4.0973,4.097,4.0967,4.0964,4.1172,4.118,4.1188,0,0,0,0,0,0,0,0,0,0,0,0,0,4.0387,4.0394,4.0785,4.0787,4.079,4.0985,4.0988,4.0991,4.0973,4.097,4.0966,4.0962,4.1169,4.1179,4.1189,0,0,0,0,0,0,0,0,0,0,0,0,0,4.0571,4.0397,4.0784,4.0805,4.0808,4.0984,4.0988,4.0991,4.0974,4.097,4.0965,4.0961,4.1166,4.1178,4.119,4.136,0,0,4.1229,4.1234,0,0,0,0,0,0,0,0,4.056,4.0586,4.0799,4.0804,4.0808,4.0949,4.0924,4.1115,4.0975,4.0911,4.0964,4.0958,4.1102,4.1119,4.1167,4.137,4.1379,4.123,4.1238,4.1243,4.1247,0,0,0,0,0,0,0,4.0548,4.0577,4.0864,4.0802,4.0808,4.0804,4.0825,4.096,4.103,4.0917,4.0916,4.094,4.1103,4.1155,4.1172,4.1382,4.123,4.1241,4.1249,4.1253,4.1731,4.1736,0,0,0,0,0,0,4.053,4.0566,4.0858,4.087,4.067,4.0815,4.0838,4.0909,4.1028,4.1042,4.0943,4.0938,4.1136,4.1157,4.1179,4.1384,4.1243,4.1255,4.1262,4.1726,4.1732,4.1737,0,0,0,0,0,0,4.0522,4.0556,4.085,4.0718,4.0755,4.0826,4.0906,4.0915,4.0967,4.1049,4.1061,4.0983,4.1133,4.1161,4.1314,4.1391,4.126,4.1272,4.172,4.1727,4.1735,4.1795,0,0,0,0,0,0,4.051,4.0553,4.0619,4.072,4.0762,4.0982,4.091,4.0922,4.0988,4.0983,4.1089,4.1103,4.1132,4.1296,4.1327,4.1406,4.1282,4.1713,4.1723,4.1732,4.1786,4.1804,4.1818,0,0,0,0,0,4.0496,4.0629,4.0622,4.0657,4.0845,4.0986,4.101,4.104,4.0994,4.106,4.1112,4.1099,4.1377,4.1311,4.1346,4.143,4.1708,4.172,4.1731,4.1779,4.18,4.1818,0,0,0,0,0,0,4.0537,4.0643,4.0636,4.0806,4.0887,4.0983,4.1067,4.1062,4.1159,4.115,4.1184,4.1208,4.1362,4.1411,4.1336,4.1599,4.1537,4.1556,4.1561,4.1582,4.1597,4.1582,4.1292,0,0,0,0,0,4.0565,4.067,4.0757,4.0898,4.0939,4.0996,4.1059,4.1074,4.116,4.1195,4.1258,4.1343,4.1448,4.1518,4.162,4.1793,4.1815,4.1868,4.1884,4.1897,4.1913,4.2006,4.2029,4.1775,4.1775,4.1775,0,0,4.0625,4.0696,4.0761,4.0908,4.0973,4.108,4.1025,4.1143,4.1223,4.1213,4.136,4.141,4.1506,4.1669,4.1744,4.1715,4.1988,4.1911,4.1921,4.193,4.202,4.2044,4.2065,4.1783,4.1782,4.178,0,0,4.0789,4.0854,4.0977,4.1043,4.1141,4.1178,4.1207,4.1304,4.1336,4.1484,4.1478,4.1574,4.1757,4.1825,4.1883,4.207,4.2061,4.2103,4.2186,4.2277,4.2297,4.2314,4.2379,4.2403,4.2118,4.2119,4.2119,0,4.0852,4.1014,4.1042,4.1159,4.1223,4.1218,4.1342,4.1405,4.1532,4.1576,4.1541,4.1768,4.1833,4.2011,4.2056,4.2104,4.2138,4.2091,4.2291,4.231,4.2327,4.2389,4.2414,4.2123,4.2122,4.2122,4.2122,0,4.1085,4.1197,4.1285,4.1406,4.148,4.1601,4.1646,4.1718,4.1726,4.1766,4.1916,4.1993,4.211,4.2153,4.2164,4.2332,4.2311,4.2284,4.2221,4.2355,4.2414,4.2438,4.2129,4.2128,4.2126,4.2125,0,0,4.1282,4.1414,4.1446,4.15,4.1606,4.1694,4.1813,4.1926,4.1986,4.2073,4.2173,4.2326,4.2301,4.2367,4.2385,4.2464,4.2605,4.2427,4.243,4.2456,4.2793,4.2812,4.2839,4.2599,4.2604,4.2608,4.2784,0,4.1456,4.1667,4.1694,4.1881,4.1984,4.1979,4.2082,4.2159,4.2199,4.2292,4.2337,4.2444,4.2403,4.2443,4.2521,4.2571,4.2673,4.2559,4.2693,4.2697,4.2667,4.287,4.2892,4.3054,4.2808,4.2812,4.2814,0,4.1688,4.1779,4.1976,4.2065,4.211,4.2202,4.2306,4.2396,4.2481,4.2505,4.2577,4.2585,4.2707,4.264,4.2809,4.2731,4.2787,4.282,4.2827,4.284,4.2763,4.2888,4.3107,4.3131,4.2852,4.2849,4.2846,0,4.181,4.1982,4.2121,4.2167,4.2276,4.2341,4.2389,4.2471,4.2535,4.2627,4.2669,4.2774,4.2831,4.2911,4.2946,4.2894,4.3113,4.3049,4.3135,4.3134,4.3181,4.3177,4.3411,4.3219,4.3219,4.3218,4.3218,0,4.2001,4.2121,4.2177,4.2263,4.2396,4.2426,4.2558,4.2604,4.2675,4.2769,4.2772,4.286,4.2901,4.2996,4.3024,4.3158,4.3185,4.3206,4.3212,4.3206,4.3203,4.3243,4.3232,4.3225,4.3223,4.3222,4.3221,0,4.216,4.2203,4.2353,4.2443,4.2468,4.2562,4.2639,4.2721,4.2759,4.2878,4.2908,4.2968,4.3079,4.3121,4.3258,4.3276,4.3431,4.3429,4.3402,4.3403,4.3486,4.3477,4.3753,4.379,4.3574,4.3576,4.3578,0,4.2279,4.237,4.2469,4.2531,4.2581,4.2682,4.2747,4.278,4.2848,4.2951,4.302,4.3131,4.322,4.3398,4.3454,4.3557,4.3557,4.3646,4.3572,4.3562,4.3556,4.355,4.3558,4.366,4.3662,4.3664,4.3665,0,4.2484,4.25,4.2594,4.2695,4.2772,4.2854,4.2933,4.2984,4.3028,4.3104,4.3216,4.3286,4.3423,4.3532,4.3638,4.3688,4.3684,4.3687,4.3713,4.3706,4.3686,4.3696,4.3438,4.3681,4.368,4.3678,4.3677,4.3677,4.2626,4.2706,4.2787,4.2891,4.2953,4.3026,4.3107,4.3154,4.3248,4.3361,4.3375,4.3495,4.3576,4.3718,4.3772,4.3866,4.3842,4.3879,4.3888,4.3897,4.3901,4.3672,4.3886,4.3885,4.3885,4.3885,4.3884,0,4.283,4.2881,4.2976,4.3085,4.3166,4.3154,4.324,4.3309,4.3414,4.349,4.3577,4.3705,4.381,4.3873,4.3978,4.4042,4.4042,4.4068,4.4063,4.4074,4.3918,4.3885,4.4066,4.4066,4.4066,4.4066,4.4065,4.4065,4.2946,4.308,4.3105,4.3269,4.332,4.3436,4.3486,4.3553,4.3613,4.3755,4.3842,4.3882,4.3952,4.4062,4.4157,4.4173,4.4211,4.4239,4.4252,4.4105,4.4086,4.4068,4.4037,4.4247,4.4247,4.4401,4.4402,4.4403]},{"header":{"parameterUnit":"m.s-1","parameterCategory":1,"la1":30.2991,"la2":30.254,"lo1":-89.0895,"lo2":-89.0444,"dy":0.0017,"dx":0.0017,"nx":28,"ny":28,"refTime":"2025-08-13T09:00:00:Z","depth":0,"parameterNumber":3,"parameterNumberName":"V-component_of_WINDS"},"data":[0,0,0,0,0,0,0,0,0,0,0,0,0,0,0,0,0,0,0,0,0,0,0,0,0,0,0,0,0,0,0,0,0,0,0,0,0,0,0,0,0,0,0,0,0,0,0,0,0,0,0,0,0,0,0,0,0,0,1.5858,1.5859,0,1.5908,1.5909,1.5909,1.5885,1.5884,1.5882,1.5881,1.5933,1.5936,1.5939,0,0,0,0,0,0,0,0,0,0,0,0,0,1.5742,1.5744,1.5858,1.5859,1.5859,1.5908,1.5909,1.5909,1.5885,1.5884,1.5882,1.5881,1.5933,1.5936,1.5939,0,0,0,0,0,0,0,0,0,0,0,0,0,1.5792,1.5745,1.5858,1.5853,1.5853,1.5908,1.5909,1.5909,1.5886,1.5884,1.5882,1.588,1.5932,1.5935,1.5939,1.6002,0,0,1.5951,1.5953,0,0,0,0,0,0,0,0,1.5789,1.5796,1.5853,1.5854,1.5854,1.5888,1.5887,1.594,1.5886,1.5873,1.5881,1.5879,1.592,1.5925,1.5938,1.6004,1.6006,1.5951,1.5954,1.5955,1.5957,0,0,0,0,0,0,0,1.5786,1.5794,1.5878,1.5854,1.5854,1.5848,1.5853,1.5897,1.5907,1.5874,1.5873,1.5879,1.592,1.5935,1.5939,1.6007,1.5951,1.5955,1.5957,1.5959,1.6125,1.6127,0,0,0,0,0,0,1.5782,1.5791,1.5876,1.5879,1.5816,1.5852,1.5858,1.5879,1.5906,1.5909,1.588,1.5877,1.5929,1.5935,1.5941,1.6016,1.5955,1.5959,1.5961,1.6123,1.6126,1.6128,0,0,0,0,0,0,1.578,1.579,1.5874,1.5835,1.5845,1.5856,1.588,1.5881,1.5896,1.5911,1.5913,1.5894,1.5928,1.5936,1.5986,1.6017,1.5961,1.5964,1.6121,1.6124,1.6127,1.6165,0,0,0,0,0,0,1.5777,1.5789,1.5814,1.5836,1.5847,1.5919,1.5882,1.5884,1.5903,1.5899,1.5924,1.5926,1.5927,1.5981,1.599,1.6021,1.5967,1.6118,1.6122,1.6126,1.6161,1.6169,1.6176,0,0,0,0,0,1.5773,1.5823,1.5815,1.5825,1.5878,1.5921,1.5928,1.5927,1.5905,1.5929,1.5939,1.5925,1.6012,1.5986,1.5997,1.6029,1.6116,1.6121,1.6126,1.6158,1.6168,1.6176,0,0,0,0,0,0,1.5805,1.5826,1.5817,1.5876,1.5897,1.5917,1.5947,1.5937,1.5965,1.5961,1.5959,1.5965,1.6017,1.6028,1.5999,1.6091,1.6061,1.6068,1.6082,1.6091,1.6098,1.6095,1.5971,0,0,0,0,0,1.5819,1.5852,1.5868,1.5919,1.5929,1.5937,1.5955,1.5953,1.5974,1.5983,1.5996,1.6018,1.605,1.6071,1.6101,1.6163,1.6167,1.619,1.6197,1.6203,1.621,1.6242,1.6252,1.6144,1.6144,1.6144,0,0,1.5848,1.5863,1.5885,1.5925,1.5941,1.5976,1.5944,1.5982,1.6007,1.5989,1.6038,1.6048,1.6072,1.6128,1.6153,1.6139,1.6241,1.621,1.6214,1.6217,1.6248,1.6258,1.6267,1.6147,1.6146,1.6146,0,0,1.5919,1.5934,1.5977,1.5993,1.6017,1.6021,1.6031,1.6053,1.6058,1.6107,1.6093,1.6123,1.6179,1.6196,1.6212,1.6287,1.6276,1.6297,1.6336,1.6368,1.6376,1.6384,1.641,1.642,1.6303,1.6303,1.6303,0,1.5952,1.6003,1.6001,1.6039,1.6057,1.6041,1.6085,1.61,1.6133,1.6146,1.6129,1.6197,1.6212,1.6271,1.6289,1.6303,1.6315,1.6295,1.6375,1.6383,1.639,1.6415,1.6425,1.6306,1.6306,1.6305,1.6305,0,1.6043,1.6079,1.6111,1.6142,1.6163,1.6204,1.6207,1.6229,1.6224,1.623,1.6279,1.6296,1.6329,1.6343,1.6339,1.6402,1.6392,1.6375,1.6345,1.6403,1.6426,1.6436,1.6309,1.6308,1.6308,1.6307,0,0,1.6137,1.6165,1.6177,1.619,1.6215,1.6242,1.6281,1.6313,1.6332,1.6354,1.6388,1.6434,1.6418,1.6436,1.6434,1.6461,1.6519,1.6441,1.6442,1.6455,1.6588,1.6601,1.6612,1.6511,1.6513,1.6515,1.6586,0,1.621,1.6279,1.6277,1.6341,1.6373,1.6358,1.6392,1.641,1.6416,1.6445,1.6451,1.6484,1.6461,1.6472,1.6498,1.6507,1.6546,1.6501,1.6542,1.6544,1.6537,1.6625,1.6638,1.6705,1.6596,1.6597,1.6598,0,1.6304,1.6328,1.6396,1.6414,1.6428,1.6459,1.6487,1.6514,1.6534,1.6536,1.6556,1.6549,1.6588,1.6557,1.6611,1.6581,1.6597,1.6603,1.6606,1.661,1.6575,1.6631,1.6727,1.6737,1.6613,1.6612,1.6611,0,1.6365,1.6415,1.6462,1.6474,1.6497,1.6519,1.6529,1.6547,1.6566,1.659,1.6602,1.6631,1.6647,1.667,1.667,1.6647,1.6725,1.6694,1.6728,1.6728,1.6746,1.6745,1.6845,1.6756,1.6756,1.6756,1.6756,0,1.6446,1.6488,1.649,1.6518,1.6564,1.6561,1.6607,1.6615,1.6631,1.6661,1.6649,1.6677,1.6676,1.6705,1.6705,1.675,1.6757,1.676,1.676,1.6762,1.6761,1.6773,1.6768,1.6758,1.6758,1.6757,1.6757,0,1.6523,1.6526,1.6575,1.6592,1.6597,1.6631,1.6645,1.6672,1.6676,1.6714,1.6723,1.6729,1.6762,1.6765,1.6803,1.6803,1.6857,1.6852,1.6851,1.685,1.6884,1.6881,1.6995,1.701,1.6911,1.6912,1.6913,0,1.6575,1.6607,1.6626,1.6645,1.6656,1.6687,1.6706,1.6703,1.6723,1.6748,1.6772,1.6803,1.6828,1.6881,1.689,1.6919,1.6914,1.6952,1.6918,1.6918,1.6914,1.6912,1.6915,1.6959,1.696,1.6961,1.6961,0,1.6666,1.6666,1.6693,1.672,1.6742,1.6764,1.6784,1.68,1.68,1.6823,1.6856,1.6875,1.6913,1.6945,1.6973,1.6983,1.6973,1.6972,1.6981,1.6983,1.6981,1.6982,1.6868,1.6969,1.6969,1.6968,1.6968,1.6967,1.6732,1.6759,1.6777,1.6807,1.6821,1.684,1.6866,1.6873,1.69,1.6931,1.6928,1.6964,1.6982,1.7019,1.7031,1.706,1.7047,1.7061,1.7064,1.7068,1.7071,1.6976,1.7065,1.7064,1.7064,1.7064,1.7064,0,1.6823,1.6833,1.6861,1.6889,1.6912,1.6899,1.692,1.6941,1.6973,1.699,1.7015,1.7052,1.7082,1.7092,1.7121,1.7142,1.7138,1.715,1.7148,1.7151,1.7081,1.707,1.7153,1.7153,1.7153,1.7153,1.7153,1.7153,1.6873,1.6917,1.6918,1.697,1.698,1.7015,1.7028,1.7045,1.7059,1.7101,1.7125,1.7131,1.7146,1.7176,1.7202,1.7204,1.7216,1.723,1.723,1.7165,1.7156,1.7147,1.7137,1.7232,1.7232,1.7297,1.7298,1.7298]}]]